Tracking 28126 objects as of 1-Oct-2023
HD Live streaming from Space Station
objects crossing your sky now

COSMOS 839 DEB

Track COSMOS 839 DEB now!
10-day predictions


NORAD ID: 13515
Int'l Code: 1976-067BC
Perigee: 988.0 km
Apogee: 2,026.1 km
Inclination: 65.9 °
Period: 116.0 minutes
Semi major axis: 7878 km
RCS: 0.0107 m2 (small)
Launch date: July 8, 1976
Source: Commonwealth of Independent States (former USSR) (CIS)
Launch site: PLESETSK MISSILE AND SPACE COMPLEX (PKMTR)

Note: This is SATELLITE DEBRIS
Your satellite tracking list
Your tracking list is empty




NASA's NSSDC Master Catalog

Two Line Element Set (TLE):
1 13515U 76067BC  23273.04886638  .00000286  00000-0  11691-2 0  9997
2 13515  65.8955 161.3479 0658850 159.5518 325.9083 12.41577870957151
Source of the keplerian elements: AFSPC